EST,Max TemperatureF,Mean TemperatureF,Min TemperatureF,Max Dew PointF,MeanDew PointF,Min DewpointF,Max Humidity, Mean Humidity, Min Humidity, Max Sea Level PressureIn, Mean Sea Level PressureIn, Min Sea Level PressureIn, Max VisibilityMiles, Mean VisibilityMiles, Min VisibilityMiles, Max Wind SpeedMPH, Mean Wind SpeedMPH, Max Gust SpeedMPH,PrecipitationIn, CloudCover, Events, WindDirDegrees
2011-11-1,60,44,28,38,33,28,100,69,37,30.25,30.19,30.14,10,6,1,16,7,23,0.00,0,,190
2011-11-2,67,57,46,39,36,34,61,46,31,30.17,30.08,29.99,10,10,10,18,9,24,0.00,0,,197
2011-11-3,56,47,38,46,40,33,86,71,55,30.21,30.08,29.99,10,10,8,21,11,24,0.00,5,,30
2011-11-4,53,40,27,37,32,27,92,68,44,30.38,30.31,30.19,10,10,8,12,5,15,0.00,1,,32
2011-11-5,54,39,24,33,27,21,92,62,32,30.39,30.31,30.23,10,10,8,16,6,21,0.00,0,,149
2011-11-6,63,49,35,41,36,28,82,64,46,30.22,30.16,30.07,10,10,10,21,11,29,0.00,1,,186
2011-11-7,61,56,51,47,45,42,77,66,55,30.24,30.20,30.13,10,10,10,14,6,17,T,7,Rain,230
2011-11-8,63,55,47,54,48,41,96,81,65,30.22,30.11,29.96,10,6,1,14,6,16,0.05,8,Rain,92
2011-11-9,63,52,40,55,47,32,96,74,51,29.97,29.73,29.53,10,8,2,32,14,44,0.41,7,Rain,192
2011-11-10,45,38,31,34,31,26,92,75,58,29.91,29.87,29.81,10,10,4,25,11,31,T,5,Rain-Snow,245
2011-11-11,45,38,31,31,28,25,92,71,49,29.96,29.90,29.83,10,10,9,20,10,25,T,6,Snow,256
2011-11-12,61,48,34,37,32,26,75,57,39,29.86,29.80,29.75,10,10,10,18,11,24,0.00,0,,208
2011-11-13,64,58,52,52,44,34,67,57,46,29.72,29.55,29.41,10,9,2,31,17,43,0.15,6,Rain,209
2011-11-14,54,46,37,42,38,34,92,74,56,29.70,29.64,29.58,10,9,4,17,5,22,0.02,2,Rain,234
2011-11-15,58,45,32,47,40,32,100,72,43,29.84,29.78,29.73,10,9,4,15,7,21,0.00,0,,202
2011-11-16,50,40,29,45,29,21,92,69,45,30.08,29.93,29.78,10,10,6,22,12,28,0.00,0,,273
2011-11-17,36,31,25,23,20,17,81,66,51,30.23,30.09,30.01,10,9,2,24,11,31,T,4,Snow,250
2011-11-18,47,36,24,20,17,13,81,53,25,30.27,30.14,30.01,10,10,10,26,14,36,0.00,1,,201
2011-11-19,54,46,38,45,32,20,76,57,37,30.02,29.92,29.78,10,10,9,21,13,31,T,7,Rain,201
2011-11-20,57,47,37,49,35,28,77,65,53,30.35,30.15,29.79,10,10,10,29,11,35,0.00,7,,344
2011-11-21,45,37,28,29,27,25,85,67,49,30.42,30.35,30.31,10,10,10,12,5,15,0.00,1,,57
2011-11-22,39,33,27,34,30,25,92,81,70,30.33,30.06,29.83,10,8,5,20,11,25,0.36,4,Rain,61
2011-11-23,49,40,31,36,32,28,92,71,50,30.20,30.08,29.87,10,9,5,15,7,18,0.03,2,Rain,289
2011-11-24,45,40,35,38,36,34,92,84,76,30.23,30.16,30.07,10,5,2,17,9,24,0.00,4,,229
2011-11-25,63,52,41,40,36,33,82,58,34,30.08,29.99,29.91,10,10,8,22,11,30,0.00,0,,211
2011-11-26,60,54,47,50,44,38,77,67,57,30.00,29.93,29.83,10,10,10,22,11,29,0.01,4,Rain,190
2011-11-27,56,46,36,52,43,33,93,88,83,30.06,29.87,29.72,10,9,5,20,11,25,0.44,8,Rain,300
2011-11-28,39,37,34,33,31,28,82,79,75,30.16,30.07,29.98,10,10,9,10,9,,0.01,8,Rain,41
2011-11-29,38,35,32,36,33,30,96,91,85,29.96,29.79,29.65,10,5,0,31,18,40,1.26,8,Fog-Rain-Snow,15
2011-11-30,36,31,26,32,26,22,100,85,69,30.18,29.87,29.69,10,7,0,21,11,25,0.08,4,Fog-Snow,293